Location: Unspecified
(0.0000°N, 0.0000°E)
Time: 11:26:21
(UTC+02:00)

Iridium 15 - Visible Passes

Search period start: 19 April 2014 00:00
Search period end: 29 April 2014 00:00
Orbit: 776 x 779 km, 86.4° (Epoch: 18 April)

Date Brightness Start Highest point End Pass type
(mag) Time Alt. Az. Time Alt. Az. Time Alt. Az.
19 Apr 7.0 22:09:03 32° SW 22:10:54 44° W 22:15:49 10° NNW visible
20 Apr 5.9 21:32:14 10° S 21:37:27 83° E 21:42:38 10° N visible
21 Apr 6.5 20:59:14 10° SSE 21:04:00 36° E 21:08:44 10° NNE visible
21 Apr 9.0 22:42:32 10° WSW 22:44:24 12° W 22:46:15 10° WNW visible
22 Apr 7.4 20:27:18 10° SE 20:30:32 17° E 20:33:44 10° NE visible
22 Apr 7.9 22:06:37 10° SSW 22:10:57 27° W 22:15:17 10° NNW visible
23 Apr 6.5 21:32:22 10° S 21:37:30 61° W 21:42:36 10° N visible
24 Apr 6.0 20:58:54 10° S 21:04:02 60° E 21:09:08 10° N visible
25 Apr 6.9 20:26:15 10° SSE 20:30:35 27° E 20:34:53 10° NNE visible
25 Apr 8.7 22:07:45 10° SW 22:10:59 17° W 22:14:14 10° NW visible
26 Apr 7.5 21:32:46 10° SSW 21:37:32 37° W 21:42:17 10° NNW visible
27 Apr 6.1 20:58:52 10° S 21:04:05 84° W 21:09:16 10° N visible
28 Apr 6.4 20:25:42 10° SSE 20:30:37 43° E 20:35:31 10° NNE visible
